EW5256 Weather Reports


Display with metric or nautical units.
time (UTC)temp
F
wind
direction
speed
MPH
gust
MPH
rain 1hr
in
rain 24hr
in
rain mn
in
humidity
%
barometer
mb
20260508024530 47 297 0.0 2.0 0.00 0.25 0.23 52 1007.8
20260508023027 48 339 0.0 4.0 0.00 0.25 0.23 51 1007.5
20260508021528 49 299 2.0 4.0 0.00 0.25 0.23 51 1007.5
20260508020033 50 9 2.0 5.0 0.00 0.25 0.23 53 1007.3
20260508014526 51 9 2.0 13.0 0.00 0.28 0.23 49 1007.2
20260508013026 51 360 3.0 8.0 0.00 0.28 0.23 51 1007.0
20260508011524 51 15 1.0 7.0 0.00 0.28 0.23 52 1007.0
20260508010024 52 355 2.0 7.0 0.00 0.28 0.23 51 1006.7
20260508004523 53 345 3.0 8.0 0.00 0.31 0.23 48 1006.4
20260508003022 52 338 4.0 8.0 0.00 0.31 0.23 47 1006.1
20260508001522 53 278 1.0 5.0 0.00 0.31 0.23 46 1005.9
20260508000022 54 302 1.0 3.0 0.00 0.31 0.23 45 1005.8
20260507234522 55 311 1.0 6.0 0.00 0.31 0.23 41 1005.6
20260507233032 56 333 1.0 7.0 0.00 0.31 0.23 41 1005.4
20260507231524 57 286 3.0 6.0 0.00 0.31 0.23 41 1005.1
20260507230019 58 341 2.0 6.0 0.00 0.31 0.23 39 1004.9
20260507224522 59 266 3.0 7.0 0.00 0.36 0.23 37 1004.7
20260507223019 60 311 2.0 6.0 0.00 0.36 0.23 38 1004.5
20260507221521 60 240 1.0 13.0 0.00 0.36 0.23 38 1004.3
20260507220017 60 313 2.0 14.0 0.00 0.36 0.23 36 1004.3
20260507214517 60 265 2.0 12.0 0.00 0.51 0.23 39 1004.3
20260507213022 61 34 2.0 8.0 0.00 0.51 0.23 38 1004.2
20260507211516 62 346 3.0 8.0 0.00 0.51 0.23 39 1004.1
20260507210015 62 321 4.0 14.0 0.00 0.51 0.23 41 1004.0
20260507204520 62 211 4.0 10.0 0.00 0.63 0.23 37 1003.9
20260507203015 63 259 5.0 13.0 0.00 0.63 0.23 37 1003.7
20260507201516 63 268 5.0 14.0 0.00 0.63 0.23 40 1003.7
20260507200013 63 278 3.0 13.0 0.00 0.63 0.23 42 1003.8
20260507194510 61 254 3.0 9.0 0.00 0.74 0.23 51 1003.8
20260507193014 62 311 5.0 15.0 0.00 0.74 0.23 52 1003.9
20260507191511 59 273 2.0 6.0 0.00 0.74 0.23 64 1004.0
20260507190008 60 199 4.0 8.0 0.00 0.74 0.23 63 1003.9
20260507184504 60 177 4.0 9.0 0.00 0.74 0.23 62 1004.2
20260507183003 59 188 4.0 9.0 0.00 0.74 0.23 61 1004.3
20260507181502 60 207 6.0 9.0 0.00 0.74 0.23 62 1004.5
20260507180003 58 276 5.0 10.0 0.00 0.74 0.23 64 1004.7
20260507174502 58 253 4.0 9.0 0.00 0.74 0.23 67 1004.9
20260507173003 56 209 5.0 9.0 0.00 0.74 0.23 70 1004.9
20260507171610 58 225 6.0 13.0 0.00 0.74 0.23 67 1004.9
20260507170117 58 190 5.0 7.0 0.00 0.74 0.23 65 1005.1
20260507164600 59 202 3.0 8.0 0.00 0.74 0.23 62 1005.0
20260507163100 59 192 0.0 5.0 0.00 0.74 0.23 63 1005.0
20260507161606 59 172 3.0 7.0 0.00 0.74 0.23 65 1005.3
20260507160059 60 269 2.0 9.0 0.00 0.74 0.23 58 1005.6
20260507154557 60 298 2.0 8.0 0.00 0.74 0.23 61 1005.7
20260507153100 60 220 2.0 6.0 0.00 0.74 0.23 58 1005.8
20260507151559 59 258 1.0 6.0 0.00 0.74 0.23 61 1005.8
20260507150059 58 290 1.0 4.0 0.00 0.74 0.23 63 1006.0
20260507144556 58 265 3.0 7.0 0.00 0.74 0.23 63 1006.1
20260507143050 58 204 2.0 8.0 0.00 0.74 0.23 64 1006.3
20260507141609 58 19 2.0 7.0 0.00 0.74 0.23 64 1006.4
20260507140048 57 340 1.0 6.0 0.00 0.74 0.23 69 1006.6
20260507134545 57 11 1.0 5.0 0.00 0.74 0.23 70 1006.6
20260507133042 55 259 2.0 7.0 0.00 0.74 0.23 69 1006.6
20260507131540 55 294 1.0 7.0 0.00 0.74 0.23 71 1006.6
20260507130039 54 342 3.0 8.0 0.00 0.74 0.23 71 1006.9
20260507124534 53 306 2.0 7.0 0.00 0.74 0.23 75 1007.1
20260507123039 52 274 2.0 6.0 0.00 0.74 0.23 76 1006.9
20260507121530 51 348 2.0 6.0 0.00 0.74 0.23 78 1006.9
20260507120040 50 5 1.0 3.0 0.00 0.74 0.23 81 1007.0
20260507114528 48 287 0.0 4.0 0.00 0.74 0.23 82 1006.9
20260507113039 49 12 0.0 2.0 0.00 0.74 0.23 85 1007.0
20260507111527 48 301 0.0 0.0 0.00 0.74 0.23 86 1007.3
20260507110030 47 42 0.0 0.0 0.00 0.74 0.23 87 1007.0
20260507104525 47 337 0.0 0.0 0.00 0.74 0.23 88 1007.2
20260507103022 46 205 0.0 3.0 0.00 0.74 0.23 88 1007.6
20260507101522 46 302 0.0 2.0 0.00 0.74 0.23 87 1007.1
20260507100030 46 323 0.0 1.0 0.00 0.74 0.23 87 1006.8
20260507094519 46 294 0.0 3.0 0.00 0.74 0.23 86 1006.8
20260507093018 46 321 1.0 3.0 0.00 0.74 0.23 85 1006.4
20260507091521 46 286 1.0 4.0 0.00 0.74 0.23 85 1006.8
20260507090015 47 32 1.0 8.0 0.00 0.74 0.23 85 1006.6
20260507084513 47 344 2.0 7.0 0.00 0.74 0.23 86 1006.5
20260507083011 48 24 1.0 5.0 0.00 0.74 0.23 88 1006.2
20260507081508 48 240 1.0 4.0 0.00 0.74 0.23 89 1006.6
20260507080006 48 273 1.0 3.0 0.00 0.74 0.23 89 1006.2
20260507074506 48 299 1.0 5.0 0.00 0.74 0.23 90 1006.2
20260507073004 48 308 1.0 5.0 0.00 0.74 0.23 91 1006.0
20260507071601 48 292 1.0 4.0 0.00 0.74 0.23 91 1005.9
20260507070059 49 296 2.0 5.0 0.00 0.74 0.23 92 1005.7
20260507064611 49 296 1.0 5.0 0.00 0.74 0.23 92 1005.5
20260507063106 49 267 1.0 4.0 0.00 0.74 0.23 92 1005.3
20260507061553 50 329 0.0 3.0 0.01 0.74 0.23 93 1005.3
20260507060051 50 346 1.0 3.0 0.01 0.74 0.23 93 1005.0
20260507054549 51 360 1.0 5.0 0.04 0.74 0.23 94 1005.3
20260507053049 51 322 1.0 6.0 0.11 0.74 0.23 94 1005.1
20260507051547 52 5 2.0 7.0 0.19 0.73 0.22 94 1005.2
20260507050045 52 342 2.0 6.0 0.22 0.73 0.22 94 1005.1
20260507044544 51 340 1.0 6.0 0.20 0.70 0.19 94 1005.4
20260507043046 51 240 1.0 4.0 0.12 0.62 0.11 94 1005.5
20260507041544 51 329 1.0 5.0 0.04 0.54 0.03 94 1004.8
20260507040036 51 290 3.0 7.0 0.01 0.51 0.00 94 1004.4
20260507034543 51 196 4.0 8.0 0.00 0.50 0.50 94 1004.3
20260507033046 51 201 4.0 10.0 0.00 0.50 0.50 94 1004.4
20260507031534 51 222 5.0 11.0 0.00 0.50 0.50 94 1004.5
20260507030032 51 228 7.0 11.0 0.01 0.50 0.50 94 1004.5